Вернуться в каталог

STARLINK-37406

АктивенСвязьVLEO
NORAD 69199·PAYLOAD·🇺🇸 United States

Запущен May 25, 2026 с Cape Canaveral Space Force Station

Loading…

Ближайшие Пролёты (ближайшие 24 часа)

TLE

СвежийSource: CelesTrak SupGP

Эпоха: Sep 14, 2026, 21:08 UTC

1 69199C 26114T   26257.88104167 -.00015045  00000+0 -44367-3 0  2575
2 69199  53.1572 139.9452 0001258  81.1782 301.7987 15.34457642    12

Отслеживайте STARLINK-37406 в реальном времени с AllMySat

Download on the App Store